Wind_Speed
35 33 32 30 27 25 22 22 20 18 16 15 15 15 15 15 16 16 16 17 17 18 19 20 22 23 24 24 24 25 25 25 26 27 28 28 29 28 28 29 30 30 31
34 33 33 32 27 26 23 22 21 19 19 18 17 17 16 16 16 17 17 17 18 19 20 20 21 23 23 22 24 24 25 25 26 27 27 28 29 29 30 31 32 34 35
32 31 32 31 28 24 24 23 22 23 21 19 18 17 17 18 19 19 20 20 20 20 20 21 21 21 23 24 24 24 25 25 25 26 27 28 28 30 32 33 34 35 36
29 29 29 27 26 25 25 25 22 22 21 20 20 20 20 19 20 21 21 21 21 21 21 20 21 21 21 22 22 23 25 25 26 27 28 30 31 32 33 35 37 37 38
29 28 28 27 26 25 23 23 23 22 21 21 22 21 20 20 21 21 21 20 20 20 20 20 20 21 22 23 24 24 25 27 28 30 31 32 33 34 35 37 38 40 42
28 28 28 27 26 25 24 25 24 24 24 23 23 23 23 24 23 23 23 22 23 22 21 21 22 23 24 26 26 27 28 29 30 32 33 35 36 37 38 39 40 42 44
26 26 27 26 26 27 27 27 26 25 23 23 24 24 25 25 25 24 24 24 24 24 24 25 25 26 27 28 29 29 30 32 33 35 36 37 37 39 40 41 42 44 46
24 24 26 27 27 27 28 29 27 26 25 25 25 25 26 27 27 26 25 26 26 26 27 28 29 29 31 31 32 32 33 35 36 37 38 39 40 41 43 44 45 46 48
25 26 26 27 28 28 28 29 28 27 27 27 27 27 28 29 29 29 29 29 29 30 31 32 33 34 35 35 35 35 36 37 38 39 41 42 43 44 45 46 46 47 49
24 25 25 26 27 26 26 26 28 29 29 29 30 30 31 31 31 31 31 33 33 33 34 35 36 37 37 37 38 38 39 40 40 41 42 44 45 45 45 46 46 47 49
24 23 24 25 26 26 26 26 28 29 30 30 31 31 32 33 33 34 34 34 35 36 37 37 38 38 39 39 40 40 40 41 41 42 43 43 44 44 45 45 47 47 48
24 24 24 25 26 27 27 28 28 30 31 32 32 33 34 34 35 35 35 36 37 37 38 38 38 39 39 40 40 40 40 41 41 41 41 42 43 43 44 45 46 46 46
22 23 23 24 26 27 28 29 30 31 31 32 33 34 34 35 36 36 37 38 38 38 39 39 40 40 40 40 40 40 40 40 41 41 41 41 42 42 42 43 43 42 42
21 21 22 24 25 26 28 29 30 31 32 33 34 34 35 36 36 37 38 38 39 39 39 39 39 39 40 39 39 38 38 39 38 39 39 39 40 39 38 38 37 37 37
19 21 22 23 25 27 28 29 31 32 32 33 34 34 35 36 36 36 37 37 38 38 39 39 38 38 38 37 37 37 37 37 37 37 37 36 36 35 34 34 34 33 33
18 20 22 23 25 26 27 29 29 30 30 31 32 32 33 34 34 34 35 35 36 36 36 36 36 36 35 35 35 35 35 35 35 34 33 32 31 30 30 30 30 30 30
19 20 21 23 24 24 26 26 27 28 28 29 29 29 30 31 31 31 32 32 32 32 32 32 32 32 32 33 34 33 33 32 31 30 29 28 27 27 27 26 26 26 26
19 20 21 22 23 24 25 25 26 26 26 26 26 27 27 28 28 27 28 28 29 30 30 30 30 30 31 31 31 30 29 28 28 27 25 24 23 23 23 23 23 24 24
17 19 20 21 21 22 22 23 23 24 24 25 25 25 25 26 26 26 27 27 28 29 29 29 29 29 29 28 28 27 26 25 24 22 20 20 20 21 21 22 22 22 22
16 18 19 19 20 20 20 21 21 21 21 22 23 23 24 24 25 26 26 26 26 27 27 26 26 25 25 24 23 23 22 21 20 19 18 18 19 19 20 20 21 21 21
14 14 15 15 16 17 17 18 19 19 20 20 21 22 22 23 23 23 23 24 24 24 24 24 23 22 21 21 20 20 19 18 17 16 16 16 16 17 18 19 20 20 20
11 12 12 13 14 14 15 16 17 18 19 19 20 20 20 21 21 21 21 21 21 21 21 20 20 20 20 19 18 17 16 15 14 14 14 15 15 16 17 18 19 19 19
10 10 11 11 12 13 13 14 15 17 17 18 18 18 18 18 18 18 18 18 18 18 18 18 18 18 17 16 15 15 14 13 13 13 13 14 15 16 17 17 18 18 19
9 9 9 10 10 11 12 13 14 15 15 16 16 16 17 16 17 17 17 16 16 15 15 16 15 15 14 14 13 12 12 12 12 12 13 14 15 15 16 16 17 18 18
8 8 8 8 9 10 11 12 13 14 14 14 14 14 15 15 15 14 14 14 14 14 14 13 12 12 11 11 11 10 10 10 11 11 12 14 14 15 15 16 17 17 18
9 9 8 9 9 10 11 11 11 11 11 11 11 12 12 13 12 12 12 12 12 12 12 11 11 10 10 10 9 9 9 9 10 11 12 13 13 14 15 15 16 17 17
Wind_Direction
252 255 256 257 255 252 252 250 245 235 230 232 234 238 239 241 246 250 254 256 260 263 264 266 269 272 274 273 274 276 276 278 280 282 283 283 281 280 282 283 284 285 284
248 253 254 255 254 252 248 251 247 239 237 237 241 244 247 247 250 254 257 261 266 270 270 274 275 274 274 273 273 276 276 277 280 281 282 283 281 279 281 282 283 283 282
247 252 255 253 253 247 245 247 248 243 242 244 247 251 252 256 256 258 260 264 268 273 277 278 279 277 276 275 277 276 277 278 280 281 280 280 281 281 282 283 284 285 284
249 251 258 256 254 253 253 251 249 252 250 251 252 255 256 262 262 262 263 267 270 273 280 282 278 277 278 279 280 279 276 277 280 280 280 280 280 281 283 283 283 283 283
251 254 258 258 256 256 255 257 259 258 252 253 255 256 262 269 271 268 269 277 280 282 286 288 285 283 282 282 282 281 280 280 282 282 282 283 282 282 283 284 284 283 284
251 254 257 256 258 259 259 261 263 261 258 257 259 262 267 272 275 275 278 281 283 284 287 290 290 289 286 284 285 285 283 283 284 284 283 284 283 284 285 285 284 284 284
254 254 254 256 258 259 261 262 262 261 258 258 262 266 269 274 276 280 284 283 284 283 285 287 289 287 287 288 288 286 284 285 285 285 285 285 285 286 287 286 286 286 285
253 254 257 257 256 257 259 260 263 264 261 263 266 270 275 278 279 281 281 281 284 284 284 286 287 287 286 287 285 285 285 285 286 286 286 287 287 287 287 287 287 287 286
251 251 254 254 255 258 259 258 261 265 267 269 270 272 275 277 279 279 279 280 282 282 283 284 286 287 287 287 287 287 286 287 288 288 288 288 288 289 289 288 288 288 287
253 252 253 254 254 257 259 259 261 264 266 268 270 271 274 276 277 278 280 281 282 282 283 285 285 285 286 286 286 286 286 288 289 288 289 288 289 290 290 289 289 288 288
253 255 254 254 255 256 258 259 260 263 265 267 268 271 273 274 276 278 279 279 280 282 283 285 285 286 286 286 286 287 288 289 289 289 289 290 290 290 289 289 289 289 289
254 255 257 256 256 257 258 260 262 264 266 268 270 271 272 274 275 277 278 279 281 282 283 284 284 285 286 286 286 288 289 290 289 290 290 290 291 291 290 290 290 290 290
255 257 258 258 259 260 261 263 264 265 267 269 271 272 274 275 276 277 278 280 281 282 283 284 285 286 287 288 288 289 289 289 289 290 291 291 291 291 291 291 292 292 292
256 258 260 261 262 263 264 265 266 267 268 270 272 274 275 276 277 278 279 280 282 283 284 285 286 287 288 288 288 287 288 289 290 290 290 292 293 293 293 294 295 296 297
264 263 265 265 265 266 265 267 269 270 270 272 274 274 275 277 278 279 280 282 283 284 284 285 286 287 287 287 288 288 289 289 290 290 290 292 293 294 296 297 299 300 301
270 267 266 266 266 267 268 269 270 270 272 274 275 277 277 278 279 281 282 283 284 284 284 285 285 285 286 287 287 288 288 289 290 291 292 293 295 297 299 301 302 304 306
274 274 271 270 269 270 271 273 273 273 274 274 276 278 279 281 281 281 282 283 284 285 285 285 285 285 285 285 285 287 289 290 290 292 294 296 297 300 303 305 307 309 311
275 273 272 270 270 271 274 276 277 275 274 276 278 279 280 281 282 282 283 283 284 283 284 285 285 285 286 286 287 288 289 290 291 293 294 296 299 303 306 309 311 312 314
276 274 273 273 273 273 274 275 275 275 275 275 276 278 279 281 281 282 282 284 285 286 286 286 286 287 288 288 288 289 290 290 292 292 294 297 300 304 309 312 314 315 317
277 276 276 276 276 275 274 273 274 274 276 277 278 278 279 280 281 282 284 285 286 286 286 286 287 288 289 289 290 290 291 291 292 293 295 298 303 308 312 314 316 318 320
283 283 281 278 278 278 277 275 275 275 276 277 277 279 280 282 284 286 286 287 287 287 287 288 288 289 290 291 291 291 292 292 293 295 298 302 307 312 315 317 319 321 322
293 292 287 282 281 281 279 278 279 278 277 277 279 281 283 285 286 286 287 288 289 290 290 291 291 291 290 291 292 292 292 292 294 298 302 307 311 315 317 319 321 323 324
307 303 294 287 285 283 282 282 282 282 280 279 281 282 285 288 288 288 289 290 292 292 293 294 293 292 291 291 291 290 291 293 295 300 304 308 314 318 319 321 325 327 327
320 314 305 298 292 288 286 285 285 285 284 283 285 285 287 289 288 288 289 291 293 295 297 298 297 296 293 292 291 292 292 294 297 301 307 312 317 320 322 326 327 328 327
339 329 317 308 305 302 299 297 295 294 292 292 291 289 290 290 289 288 290 294 298 300 301 301 300 299 299 297 295 295 295 297 300 305 311 315 318 322 327 328 327 328 329
354 347 338 329 324 319 314 310 308 305 302 301 300 299 296 294 292 292 294 296 300 304 305 302 300 300 301 300 301 301 300 303 309 313 316 319 321 324 327 327 328 330 332
Height
5833 5834 5834 5834 5834 5835 5838 5839 5838 5840 5843 5845 5847 5848 5849 5850 5850 5850 5850 5851 5851 5851 5852 5852 5852 5853 5853 5852 5852 5851 5851 5850 5848 5847 5845 5844 5843 5841 5840 5838 5836 5834 5832
5827 5828 5829 5830 5829 5830 5832 5834 5836 5836 5838 5840 5842 5843 5844 5845 5845 5845 5845 5845 5845 5845 5846 5846 5846 5846 5846 5845 5845 5845 5844 5843 5841 5840 5839 5837 5836 5834 5833 5831 5828 5826 5824
5820 5822 5823 5824 5824 5825 5827 5829 5830 5830 5832 5834 5836 5838 5839 5839 5840 5840 5841 5840 5840 5840 5840 5840 5840 5839 5839 5839 5838 5838 5837 5836 5835 5833 5832 5831 5829 5827 5825 5823 5820 5818 5815
5816 5817 5818 5818 5819 5820 5822 5822 5822 5825 5827 5829 5831 5832 5833 5833 5834 5834 5835 5835 5835 5834 5834 5834 5833 5833 5832 5832 5831 5830 5830 5829 5828 5826 5825 5823 5821 5819 5817 5815 5812 5809 5806
5811 5812 5813 5813 5814 5816 5817 5818 5820 5821 5822 5824 5826 5827 5827 5827 5828 5828 5828 5828 5829 5828 5828 5828 5827 5826 5825 5825 5824 5823 5822 5821 5820 5818 5816 5814 5812 5810 5808 5806 5802 5799 5796
5806 5807 5808 5810 5811 5812 5813 5814 5815 5816 5817 5819 5820 5821 5821 5821 5821 5821 5821 5822 5823 5822 5821 5821 5820 5819 5818 5817 5816 5815 5814 5812 5811 5809 5807 5805 5803 5801 5798 5795 5792 5788 5785
5800 5801 5802 5804 5806 5807 5808 5809 5809 5810 5812 5813 5814 5814 5815 5816 5816 5816 5816 5816 5815 5814 5814 5813 5813 5812 5810 5809 5808 5807 5805 5803 5802 5800 5798 5795 5792 5790 5787 5784 5781 5777 5773
5794 5796 5797 5798 5800 5801 5802 5803 5803 5804 5805 5806 5807 5808 5809 5809 5809 5809 5809 5808 5808 5807 5807 5806 5805 5804 5802 5801 5799 5798 5796 5794 5792 5789 5787 5784 5781 5779 5776 5773 5769 5765 5760
5788 5789 5791 5792 5794 5795 5795 5796 5798 5798 5799 5800 5801 5801 5802 5802 5801 5801 5801 5801 5800 5800 5799 5798 5797 5795 5793 5792 5790 5788 5786 5783 5781 5779 5776 5773 5770 5767 5764 5761 5757 5753 5748
5782 5783 5785 5786 5788 5789 5790 5791 5792 5792 5793 5794 5794 5795 5795 5794 5794 5794 5793 5793 5792 5791 5790 5789 5787 5786 5784 5782 5780 5777 5775 5773 5770 5767 5765 5762 5758 5755 5751 5748 5744 5740 5735
5777 5777 5779 5780 5782 5783 5784 5785 5786 5786 5787 5787 5787 5788 5787 5786 5786 5786 5785 5784 5783 5782 5781 5779 5777 5775 5774 5771 5769 5767 5764 5762 5759 5756 5753 5750 5746 5743 5739 5735 5731 5727 5722
5771 5772 5773 5774 5775 5776 5777 5778 5779 5779 5779 5779 5779 5779 5779 5778 5778 5777 5776 5775 5774 5772 5770 5769 5767 5765 5763 5761 5759 5756 5753 5750 5748 5745 5741 5738 5734 5731 5727 5723 5718 5714 5709
5766 5767 5768 5769 5770 5770 5771 5771 5772 5772 5772 5772 5771 5771 5770 5769 5769 5768 5767 5765 5764 5762 5760 5758 5756 5754 5752 5750 5748 5745 5742 5739 5737 5733 5730 5727 5723 5719 5715 5711 5706 5702 5698
5760 5761 5762 5763 5764 5764 5764 5764 5764 5764 5764 5763 5763 5763 5762 5760 5759 5758 5757 5755 5754 5752 5750 5748 5746 5744 5742 5739 5737 5734 5732 5729 5726 5722 5719 5716 5712 5708 5704 5700 5696 5691 5687
5755 5756 5756 5756 5757 5757 5757 5757 5756 5756 5756 5755 5754 5753 5752 5751 5750 5749 5747 5745 5744 5742 5740 5738 5736 5734 5732 5729 5727 5724 5722 5719 5715 5712 5709 5706 5702 5698 5695 5691 5686 5682 5677
5750 5750 5750 5750 5750 5749 5749 5749 5748 5748 5747 5747 5746 5744 5743 5742 5741 5739 5738 5736 5734 5732 5730 5728 5726 5724 5722 5720 5717 5715 5712 5709 5706 5703 5700 5696 5693 5690 5686 5682 5678 5674 5670
5745 5744 5744 5743 5742 5742 5742 5741 5740 5740 5739 5738 5737 5736 5735 5733 5732 5730 5729 5727 5725 5723 5721 5719 5717 5715 5713 5710 5708 5705 5702 5700 5697 5694 5691 5688 5685 5682 5679 5675 5671 5668 5664
5738 5738 5737 5736 5735 5735 5734 5733 5733 5732 5731 5730 5729 5728 5727 5726 5724 5722 5721 5719 5717 5715 5713 5711 5709 5706 5704 5702 5699 5696 5694 5691 5689 5687 5684 5681 5679 5676 5673 5670 5666 5663 5659
5732 5731 5730 5729 5728 5728 5727 5726 5726 5725 5724 5723 5722 5721 5720 5718 5717 5715 5713 5711 5709 5707 5705 5703 5701 5698 5696 5694 5692 5689 5687 5685 5682 5680 5678 5676 5673 5671 5668 5665 5661 5658 5654
5726 5725 5724 5723 5722 5722 5721 5720 5719 5718 5717 5716 5715 5714 5713 5711 5709 5708 5706 5704 5702 5700 5698 5695 5693 5691 5689 5687 5685 5683 5680 5678 5677 5675 5673 5671 5668 5666 5663 5660 5657 5653 5649
5721 5720 5718 5717 5717 5716 5715 5714 5713 5712 5711 5710 5709 5707 5706 5704 5702 5701 5699 5697 5695 5693 5691 5689 5687 5685 5683 5681 5679 5677 5675 5674 5672 5670 5668 5666 5664 5662 5659 5656 5653 5649 5646
5716 5715 5714 5713 5712 5711 5710 5709 5708 5707 5705 5704 5703 5701 5700 5698 5696 5695 5693 5691 5689 5687 5685 5683 5681 5679 5677 5676 5674 5673 5671 5669 5668 5666 5665 5663 5661 5658 5655 5652 5649 5646 5642
5713 5711 5710 5709 5708 5707 5706 5704 5703 5701 5700 5699 5697 5696 5694 5693 5691 5689 5688 5686 5684 5682 5680 5678 5676 5674 5673 5671 5670 5669 5667 5666 5665 5663 5662 5660 5657 5655 5652 5649 5646 5643 5639
5710 5708 5707 5706 5704 5703 5702 5700 5698 5697 5695 5693 5692 5691 5689 5688 5686 5685 5683 5681 5680 5678 5676 5674 5672 5670 5669 5667 5666 5665 5664 5663 5662 5660 5659 5657 5654 5652 5649 5646 5643 5640 5636
5707 5706 5704 5703 5701 5699 5698 5696 5694 5693 5691 5689 5688 5686 5685 5683 5682 5680 5679 5677 5676 5674 5672 5670 5669 5667 5666 5664 5663 5662 5661 5660 5659 5657 5656 5654 5651 5649 5646 5643 5640 5637 5633
5706 5704 5702 5700 5698 5697 5695 5693 5691 5689 5687 5686 5684 5682 5681 5679 5678 5676 5675 5674 5672 5671 5669 5667 5666 5664 5663 5662 5661 5660 5659 5657 5656 5655 5653 5651 5648 5646 5644 5641 5637 5634 5631